星链-4412 (STARLINK-4412 )

导读

STARLINK-4412是美国太空探索技术公司(SpaceX)“星链”星座中的一颗互联网通信卫星,于2022年8月12日由猎鹰9号火箭发射升空。卫星质量约297千克,运行在近地轨道,目前高度约548公里,飞行速度7.59公里每秒,属于星链Group 4-16批次,旨在为全球提供高速卫星互联网接入服务,是星链低轨巨型星座组网的组成部分。

基本信息
目录编号:
53477
目录名称:
STARLINK-4412
国际标识:
2022-099N
轨道中心:
EARTH
卫星名称:
星链-4412
卫星全名:
星链-4412 (STARLINK-4412 )
卫星状态:
已陨落 最后检测时间 2026-09-06
发射日期:
2022-08-12 UTC
国别 :
美国 (US)
星等 :
--
该卫星已列入 空间交会检测服务 Space Conjunction Data Service (SCDS) ,当前飞行风险评估等级: 无高风险
轨道信息
数据来源 国际轨道数据
星历时间: 2026-09-06T16:05:20+0800
6天前
查看轨道信息
半长轴: 6522.679km
偏心率: 0.0012525
轨道倾角: 97.581°
近地点辐角 306.128°
升交点赤经 21.792°
平近点角 53.886°
近地点: 136.372km
远地点: 152.712km
周期: 87.377分钟
每日圈数: 16.480251
详细信息
固有亮度:
5
最大亮度:
2.5
卫星平台:
Starlink v1.5
覆盖范围:
全球
运营商:
太空探索技术公司
运营商所在国:
美国
制造商(研发单位):
太空探索技术公司
制造商所在国:
美国
使用方式:
暂无
卫星简介
星链(Starlink)计划是由太空探索技术公司(SpaceX)提出的一个巨型低轨卫星互联网星座项目,计划在2019年至2024年间在太空搭建由约1.2万颗卫星组成的“星链”网络,其中1584颗将部署在地球上空550千米处的近地轨道,并从2020年开始工作。该卫星仍在工作。
与全量物体交会距离演化趋势
与全量物体交会风险概率演化趋势